Location: Newark
(47.5833°N, 8.1500°E)
Time: 07:03:14
(UTC+00:00)

Vanguard 1 - Pass Details

Date: 29 October 2020
Orbit: 650 x 3833 km, 34.2° (Epoch: 29 November)

Event Time Altitude Azimuth Distance (km) Brightness Sun altitude
Rises 14:21:00 0° 257° (WSW) 7,834 15.8 15.5°
Reaches altitude 10° 14:26:23 10° 254° (WSW) 6,914 15.8 14.8°
Maximum altitude 14:48:35 55° 186° (S) 3,874 13.6 11.9°
Drops below altitude 10° 15:04:23 10° 115° (ESE) 5,110 13.4 9.7°
Sets 15:07:40 0° 110° (ESE) 5,765 13.6 9.2°
